カタログに戻る

STARLINK-31753

運用中通信VLEO
NORAD 59484·PAYLOAD·🇺🇸 United States

打ち上げ Apr 13, 2024 から Cape Canaveral Space Force Station

Loading…

次のパス (今後24時間)

TLE

最新Source: CelesTrak SupGP

元期: Sep 14, 2026, 13:31 UTC

1 59484C 24071A   26257.56368056 -.00062942  00000+0 -22805-2 0  2575
2 59484  43.0034 353.1662 0001383 273.9611 333.9594 15.27599514    11

AllMySatでSTARLINK-31753をリアルタイム追跡

Download on the App Store